Location: Asheville, NC
(35.6000°N, 82.5500°W)
Time: 16:41:38
(UTC-05:00)

HO-68 - Pass Details

Date: 04 January 2018
Orbit: 1192 x 1205 km, 100.1° (Epoch: 17 January)

Event Time Altitude Azimuth Distance (km) Brightness Sun altitude
Rises 18:35:03 0° 160° (SSE) 4,091 ? -12.9°
Reaches altitude 10° 18:37:39 10° 159° (SSE) 3,128 ? -13.4°
Maximum altitude 18:44:48 81° 73° (ENE) 1,214 ? -14.8°
Drops below altitude 10° 18:51:59 10° 348° (NNW) 3,135 ? -16.2°
Sets 18:54:36 0° 347° (NNW) 4,101 ? -16.7°
